This demonstration page uses our WeatherBlox Daily Observations layout. Learn more.

Left ArrowRight Arrow

39.92423, -83.80882

Hourly Observations for June 28, 2018

Temp ( °F °C ) Dew Point ( °F °C ) Humidity (%) Winds ( mph kmh ) Pressure ( in mb ) Visibility ( mi km ) Precip ( " mm )
12:56 am 00:56 Clear 69 20.6 66 18.9 90 90 W 6 9 29.88 1012 10 16 N/A
1:56 am 01:56 Clear 68 20 66 18.9 93 93 W 6 9 29.89 1012 10 16 N/A
2:56 am 02:56 Clear 67 19.4 66 18.9 97 97 W 7 11 29.88 1012 10 16 N/A
3:56 am 03:56 Clear 67 19.4 65 18.3 93 93 W 7 11 29.88 1012 10 16 N/A
4:56 am 04:56 Clear 67 19.4 65 18.3 93 93 WNW 7 11 29.88 1012 10 16 N/A
5:56 am 05:56 Clear 66 18.9 64 17.8 93 93 WNW 7 11 29.89 1012 10 16 N/A
6:56 am 06:56 Sunny with Mist and Fog 65 18.3 64 17.8 97 97 W 6 9 29.91 1013 6 10 N/A
7:56 am 07:56 Sunny 68 20 65 18.3 90 90 W 7 11 29.93 1013 10 16 N/A
8:56 am 08:56 Sunny 70 21.1 64 17.8 82 82 NNW 5 7 29.93 1014 10 16 N/A
9:56 am 09:56 Sunny 73 22.8 65 18.3 76 76 W 5 7 29.94 1014 10 16 N/A
10:56 am 10:56 Sunny 75 23.9 66 18.9 74 74 VRB 5 7 29.96 1015 10 16 N/A
11:38 am 11:38 Mostly Cloudy 75 24 66 19 74 74 VRB 5 7 29.97 1015 10 16 N/A
11:56 am 11:56 Mostly Cloudy 77 25 67 19.4 71 71 WSW 6 9 29.98 1015 10 16 N/A
12:12 pm 12:12 Partly Cloudy 79 26 66 19 65 65 W 5 7 29.94 1014 10 16 N/A
12:56 pm 12:56 Mostly Sunny 78 25.6 66 18.9 67 67 NW 5 7 29.97 1015 10 16 N/A
1:56 pm 13:56 Mostly Sunny 80 26.7 68 20 67 67 VRB 6 9 29.95 1014 10 16 N/A
2:56 pm 14:56 Mostly Cloudy 81 27.2 68 20 65 65 VRB 5 7 29.93 1014 10 16 N/A
3:56 pm 15:56 Mostly Cloudy 83 28.3 69 20.6 63 63 VRB 5 7 29.93 1014 10 16 N/A
4:56 pm 16:56 Partly Cloudy 80 26.7 69 20.6 69 69 SSE 3 6 29.95 1014 10 16 N/A
5:56 pm 17:56 Mostly Sunny 83 28.3 68 20 61 61 WNW 3 6 29.97 1015 10 16 N/A
6:56 pm 18:56 Sunny 82 27.8 67 19.4 60 60 SSE 3 6 29.96 1014 10 16 N/A
7:56 pm 19:56 Sunny 82 27.8 68 20 63 63 N N/A 29.95 1014 10 16 N/A
8:56 pm 20:56 Sunny 77 25 72 22.2 85 85 N N/A 29.96 1015 10 16 N/A
9:56 pm 21:56 Mostly Clear 75 23.9 68 20 79 79 NW 5 7 29.98 1015 10 16 N/A
10:56 pm 22:56 Clear 71 21.7 68 20 90 90 N N/A 30.00 1016 10 16 N/A
11:56 pm 23:56 Clear 71 21.7 66 18.9 84 84 N N/A 30.00 1016 10 16 N/A

Powered by AerisWeather